Wind_Speed
37 40 40 40 38 35 34 33 32 29 26 25 23 20 17 14 13 11 10 7 4 3 2 5 7 10 12 12 13 13 13 13 13 13 13 14 16 18 20 22 25 29 32 34 34 32 28 27 27 26 24 23 23 22 22 21 20 20 19 18 16 16 16
39 39 41 42 40 36 33 32 33 33 30 28 26 24 20 17 15 14 13 10 7 5 3 1 4 7 9 10 10 11 11 11 11 12 12 13 15 17 20 22 25 29 32 33 32 30 27 26 26 24 23 23 22 21 20 19 19 18 17 15 14 13 13
36 37 40 42 43 40 35 32 32 34 33 31 29 27 23 20 18 17 16 13 10 8 5 3 1 4 6 7 8 8 9 10 10 10 11 12 14 17 19 23 26 29 31 31 30 27 25 24 24 23 22 22 21 21 19 18 17 16 15 13 12 11 11
36 34 36 40 45 44 39 37 35 34 35 34 32 30 27 24 21 20 18 16 13 11 9 6 4 2 3 5 6 6 7 8 8 9 9 11 13 16 18 22 25 28 29 29 27 25 23 22 22 22 22 21 21 20 19 18 17 15 13 12 10 9 8
35 33 32 34 41 44 43 43 40 37 37 37 35 33 30 27 24 22 20 18 16 15 12 10 7 5 3 4 4 5 5 6 7 7 8 9 11 13 17 20 24 26 27 27 25 23 22 21 21 21 21 21 20 19 19 17 16 15 13 11 9 8 7
33 33 33 32 34 40 44 46 45 40 38 40 40 37 33 30 27 24 22 21 20 18 15 13 11 8 6 5 4 4 5 5 6 7 7 8 9 11 14 17 20 23 24 24 23 22 21 20 20 20 20 20 20 19 18 17 16 14 13 11 9 8 6
37 33 35 36 34 35 40 46 46 40 37 40 41 38 36 33 30 28 26 24 23 21 18 16 14 12 10 8 6 5 5 5 6 7 8 8 9 10 12 14 17 19 21 22 22 21 21 20 19 19 19 19 19 19 18 17 16 15 13 11 10 9 7
42 39 36 39 39 36 36 44 47 41 37 40 41 40 39 36 33 31 30 28 25 23 21 19 18 16 14 12 10 8 7 7 6 7 8 9 9 10 11 12 14 16 17 18 19 20 20 20 19 19 19 19 19 19 18 18 17 16 14 13 11 10 8
45 47 45 42 43 42 39 43 47 43 39 41 44 43 41 38 36 34 32 31 29 26 24 22 21 20 19 17 14 11 10 9 8 8 8 9 10 11 11 12 12 13 15 16 17 18 18 18 19 19 19 18 18 18 18 18 17 16 15 14 13 11 9
50 49 51 48 47 49 47 45 46 45 42 42 45 46 44 41 39 37 32 31 33 32 29 27 25 25 25 23 19 16 13 11 10 10 9 10 11 12 13 13 13 13 14 15 15 16 17 17 17 18 18 18 18 18 17 17 16 15 15 14 13 12 11
61 52 52 55 53 53 52 48 47 47 45 43 44 46 46 43 40 37 32 31 35 38 34 30 28 29 29 26 24 21 17 14 13 12 13 12 12 12 13 13 14 15 15 15 15 16 16 17 17 17 17 17 17 17 17 16 16 15 15 14 14 13 12
66 58 52 55 57 54 52 49 48 50 49 44 44 46 48 47 44 40 36 33 35 39 37 32 30 31 31 30 28 27 23 20 19 20 20 19 18 16 16 15 14 15 16 16 16 17 17 17 17 17 17 17 17 17 17 17 16 16 15 14 14 13 12
63 62 52 52 55 53 51 49 47 50 53 51 48 47 47 50 51 50 48 44 40 40 40 38 36 35 34 33 33 31 28 24 24 26 26 25 24 23 21 18 16 17 17 17 17 18 18 18 18 18 18 18 18 18 17 17 17 16 16 15 15 14 13
66 65 57 52 52 50 51 55 51 49 54 59 58 55 51 52 54 56 57 56 50 46 45 44 42 39 38 37 37 35 31 28 28 29 29 28 27 26 24 22 21 21 20 18 19 19 19 20 19 19 19 19 19 19 19 18 18 18 18 17 17 17 16
74 71 66 59 56 52 51 56 56 52 51 56 62 62 59 58 59 58 59 60 56 51 49 49 46 44 42 41 40 38 35 33 32 32 31 30 29 28 28 28 27 25 20 19 21 22 22 21 21 20 20 20 20 20 19 20 20 20 20 20 19 19 18
80 77 73 68 64 61 57 55 55 54 50 51 57 61 59 60 63 61 59 60 59 55 52 51 50 48 46 45 43 41 39 38 37 35 34 33 33 33 32 31 30 27 25 25 27 27 26 25 24 23 22 22 21 21 21 22 21 20 20 20 20 20 19
84 79 76 76 74 70 66 61 56 54 51 51 55 58 57 57 63 65 62 60 60 58 55 54 53 51 49 48 47 45 44 43 41 39 38 37 38 37 35 33 32 32 32 33 33 31 30 29 27 26 25 24 24 23 24 23 21 21 21 20 20 20 18
87 83 79 80 81 77 73 70 66 59 55 55 57 59 58 56 59 66 67 64 61 60 58 56 56 54 52 51 50 48 47 46 45 43 42 41 41 39 37 36 37 37 36 36 35 33 33 33 31 29 28 28 27 26 26 24 23 24 23 22 22 21 20
87 87 83 81 83 80 75 76 76 70 63 60 60 61 61 60 59 62 66 67 65 63 62 60 59 58 56 54 53 52 50 50 49 47 45 44 43 42 41 41 41 41 39 36 34 34 35 34 33 32 32 31 29 29 29 28 27 27 25 24 24 24 23
85 87 85 83 84 82 77 78 82 79 72 67 64 63 63 63 63 63 64 66 67 66 65 64 63 62 60 58 57 56 54 52 51 49 48 47 47 46 45 44 43 43 41 37 36 37 37 35 34 34 35 34 32 32 32 32 31 30 30 29 28 27 27
83 88 88 86 88 88 83 80 83 84 81 76 71 68 65 64 65 67 67 66 67 69 69 67 66 66 64 62 61 59 57 55 54 53 52 51 51 50 49 46 45 45 44 41 41 42 42 39 38 38 38 36 34 33 33 34 34 34 35 34 32 31 30
76 84 89 89 91 93 90 85 83 84 85 84 79 74 71 68 66 67 70 70 69 70 71 70 69 69 68 66 64 63 61 60 59 58 57 55 54 54 52 50 48 47 47 45 43 44 45 43 42 41 39 38 36 34 34 37 38 38 38 37 36 34 33
74 78 85 90 92 93 93 91 89 88 89 89 87 82 77 72 69 68 69 72 73 72 73 73 71 71 71 70 68 66 64 63 64 64 62 59 58 57 55 53 51 49 49 48 46 45 46 46 45 42 40 39 38 37 38 41 41 41 40 40 39 38 36
78 76 79 85 91 92 93 93 94 95 94 93 91 88 84 78 74 71 70 71 74 75 75 75 74 73 74 73 72 70 67 65 65 67 66 64 62 61 58 56 54 53 52 51 50 48 48 48 47 44 41 41 41 41 44 45 45 44 43 42 42 41 39
84 81 77 79 85 90 93 95 96 98 98 95 91 90 89 85 80 76 74 73 75 76 77 77 76 77 77 76 74 73 71 68 67 68 69 68 66 65 62 59 57 57 56 54 53 52 50 49 49 47 44 43 44 46 47 48 49 48 46 45 44 43 42
85 86 83 79 80 84 91 96 98 98 100 98 93 89 90 90 87 83 80 77 76 77 78 78 79 80 80 78 76 75 75 73 71 70 71 71 70 69 66 63 61 59 59 58 57 55 54 52 51 50 48 45 47 50 50 49 50 51 50 49 49 47 46
82 85 87 86 83 83 88 94 97 97 99 100 97 91 89 90 91 90 86 82 79 79 80 80 81 83 82 80 78 77 77 77 76 74 72 73 73 73 70 68 65 63 61 61 59 57 56 56 55 53 52 51 51 52 53 51 51 52 51 51 53 52 50
77 81 84 87 88 86 87 92 95 96 97 99 100 97 92 90 90 91 92 89 84 81 82 83 84 85 85 83 81 80 78 78 79 78 77 75 75 75 74 73 71 68 65 64 62 57 55 57 57 54 54 56 56 55 55 55 55 56 53 50 52 53 53
73 78 80 84 88 88 88 90 94 96 97 99 101 101 99 95 92 92 93 94 90 86 84 84 86 87 88 87 86 84 82 79 79 80 81 80 78 78 78 77 76 74 72 70 68 65 61 60 59 55 55 57 58 57 56 56 61 64 60 54 51 52 52
70 75 79 81 85 87 88 89 92 96 99 101 102 102 102 101 97 94 93 94 95 92 87 85 86 88 89 90 89 88 86 83 81 81 82 83 82 82 81 81 81 80 78 76 76 74 71 69 67 64 61 61 61 60 58 59 63 65 63 60 59 57 55
69 73 78 80 81 84 86 88 91 95 99 102 103 102 102 102 101 98 94 92 95 95 93 89 87 88 90 91 91 91 90 88 86 84 84 85 85 85 85 85 85 85 84 82 81 81 81 80 78 76 73 70 68 66 64 63 64 65 64 63 64 64 63
67 72 76 78 79 80 83 86 89 93 96 99 101 102 102 102 103 102 98 93 92 95 97 95 91 89 89 91 92 92 92 90 88 87 87 87 87 87 87 88 89 89 89 88 86 86 86 86 85 83 81 79 77 75 72 69 68 68 68 67 66 67 68
63 69 74 77 78 79 81 84 87 90 94 97 99 100 101 101 102 103 102 97 93 93 97 100 98 93 90 90 92 93 92 91 89 89 88 88 88 88 89 89 89 91 92 92 91 91 90 90 89 87 85 84 82 81 80 77 74 73 72 72 71 71 71
58 64 70 74 76 78 81 84 86 89 92 95 97 98 99 100 101 102 103 101 97 94 96 100 102 100 95 91 91 92 93 93 92 91 91 90 89 89 90 90 90 91 93 94 95 95 94 94 93 91 89 87 85 85 84 82 80 78 77 77 75 74 75
57 61 66 71 75 77 80 84 87 89 92 94 97 98 99 99 100 102 103 102 100 98 96 98 102 105 103 97 93 92 93 94 94 93 93 93 92 91 91 92 92 92 93 95 96 97 97 96 96 95 93 90 88 87 87 86 85 83 82 81 81 80 80
56 60 64 69 73 77 79 81 85 89 93 95 96 97 99 99 99 100 101 102 101 100 98 98 99 104 107 105 100 96 94 94 95 95 96 95 95 94 94 94 95 94 95 96 97 98 98 98 98 98 97 96 93 91 89 89 88 87 86 85 85 85 85
56 59 63 67 71 75 78 80 82 86 91 95 97 98 98 99 99 99 100 101 102 101 100 99 98 101 105 107 106 102 99 97 97 97 98 98 98 97 96 96 97 97 96 97 98 99 100 100 100 99 98 98 98 97 95 93 91 90 88 88 89 89 89
56 58 61 65 70 74 77 80 82 83 86 90 95 98 99 99 98 98 99 101 101 102 102 102 101 101 103 106 107 106 103 102 101 100 100 100 101 101 100 100 100 100 99 99 99 100 101 101 101 101 100 100 100 100 100 99 97 94 92 90 89 90 91
Wind_Direction
231 234 232 231 232 236 237 236 235 232 230 231 233 235 234 237 243 250 259 264 277 308 358 49 59 59 54 47 43 43 47 53 60 71 87 102 112 121 128 133 139 143 145 146 147 146 145 144 144 143 141 141 140 138 134 130 126 122 116 110 104 97 92
238 242 236 229 227 230 232 233 234 233 230 229 231 233 232 232 235 240 248 254 257 266 285 22 63 70 67 59 52 48 50 55 61 70 85 102 114 123 130 136 142 146 148 149 149 149 148 147 148 147 146 146 145 143 140 135 130 125 120 113 105 98 92
234 241 238 228 221 222 225 228 232 232 229 229 229 230 230 229 230 232 238 245 248 251 256 254 136 91 85 75 66 61 59 60 66 73 84 101 116 125 132 139 145 149 151 151 152 152 151 152 152 152 152 151 151 150 147 142 138 133 127 121 112 104 96
220 228 235 231 224 224 226 228 232 233 229 229 229 228 228 226 226 227 232 239 243 244 245 243 232 176 119 99 85 78 75 73 74 79 89 100 115 128 136 142 148 152 154 155 156 156 156 156 158 159 158 158 157 157 156 152 149 144 139 133 126 116 104
216 222 231 233 228 228 229 228 231 233 232 229 228 228 226 224 224 225 229 234 239 242 241 242 243 230 184 144 122 107 97 94 92 92 97 106 117 130 140 146 152 156 158 160 161 162 162 161 163 165 165 165 165 165 165 163 161 158 155 151 147 138 126
213 219 226 228 228 228 228 226 227 232 233 228 226 226 226 224 223 221 224 229 234 237 238 241 245 241 224 194 164 147 134 122 120 117 114 119 125 133 142 150 156 161 164 166 167 168 168 168 168 169 171 172 173 174 174 174 174 173 171 171 169 166 159
211 214 220 221 222 225 226 224 225 229 230 225 223 224 224 224 222 219 221 225 230 233 234 236 240 242 238 221 199 181 171 160 151 144 136 136 138 141 147 153 159 165 169 172 174 175 175 175 175 175 176 178 180 182 183 185 186 187 188 190 191 190 190
213 214 217 219 216 216 220 222 222 226 230 226 221 223 224 224 223 222 222 223 226 230 231 232 235 238 241 235 218 200 193 188 177 166 157 152 151 153 156 160 163 168 172 176 180 181 182 183 184 183 183 183 185 187 190 193 195 199 201 205 206 207 210
215 216 218 220 217 213 217 224 226 230 235 230 224 224 225 225 223 223 224 225 225 225 226 228 232 233 234 235 227 211 204 201 196 191 181 171 166 165 166 168 171 173 177 180 184 186 189 191 192 192 191 191 192 194 196 199 202 205 209 212 215 217 221
217 219 219 221 221 217 218 223 227 232 235 232 228 228 226 224 223 222 224 229 227 223 222 219 219 224 226 228 227 219 209 205 206 208 203 193 185 180 177 176 178 181 184 186 189 191 193 196 197 198 199 199 200 201 203 206 208 211 214 218 220 223 226
220 220 220 222 223 220 219 221 224 228 231 229 227 228 225 220 218 219 222 228 223 219 220 214 210 217 223 224 225 222 213 205 208 216 215 213 207 196 189 186 185 188 191 192 195 197 198 200 201 202 204 204 205 206 207 209 212 215 218 221 224 226 227
221 219 218 222 224 222 222 225 226 225 226 223 220 223 223 217 213 212 215 221 220 216 216 214 213 219 222 222 223 223 217 206 204 211 211 211 213 209 201 196 195 197 198 198 200 202 204 205 206 206 207 208 207 208 209 210 212 215 217 220 222 224 224
219 216 215 219 220 221 223 224 225 224 223 221 217 217 219 218 214 211 212 217 221 218 215 215 218 221 223 223 223 224 223 215 210 212 212 208 209 208 204 200 203 208 207 204 205 207 208 210 212 212 212 212 211 211 211 212 213 215 216 218 220 221 222
218 215 212 211 211 215 220 219 220 222 222 222 220 219 219 219 218 215 214 217 223 222 219 219 221 222 222 222 223 223 223 222 218 217 216 214 211 209 205 203 206 210 211 212 213 212 212 214 214 216 218 217 218 217 217 218 219 220 221 222 224 226 228
220 217 214 210 209 213 219 217 215 217 220 221 223 225 224 223 222 220 217 218 221 222 221 222 224 224 223 223 223 222 221 222 222 220 219 218 216 213 210 207 207 207 208 220 225 220 217 217 216 217 219 220 221 221 221 223 225 226 226 227 229 231 232
220 219 217 215 214 216 219 219 216 215 217 219 223 227 228 224 222 223 221 220 220 221 221 222 225 226 226 225 224 223 222 221 223 224 222 221 220 219 216 213 211 206 202 214 225 225 222 219 218 218 219 220 221 221 222 224 226 228 229 229 231 234 233
218 219 219 219 219 219 220 222 221 216 213 213 218 225 229 225 220 220 222 222 221 222 222 222 224 226 227 228 227 225 223 222 223 224 225 225 224 224 223 221 220 214 206 208 215 221 223 222 220 220 221 222 223 224 225 226 225 227 229 230 233 236 235
218 218 219 221 221 221 221 222 222 220 216 211 212 219 227 229 224 220 221 223 224 224 223 222 224 225 226 228 228 227 226 225 225 224 226 227 227 227 226 226 227 222 216 213 213 216 220 222 221 220 221 223 225 226 230 230 229 229 230 229 232 234 234
219 218 218 221 222 222 222 222 222 223 221 215 211 214 221 228 228 223 222 223 225 225 225 224 225 226 227 228 229 230 229 228 228 227 226 227 229 229 228 228 231 229 225 223 222 220 221 222 223 225 224 224 224 227 231 232 232 233 234 233 233 233 232
220 218 217 219 222 223 223 223 223 223 222 219 214 212 216 223 228 227 225 225 225 225 226 226 226 227 229 228 229 231 232 231 231 231 229 229 229 231 230 231 233 233 229 228 229 229 225 222 224 228 229 226 225 228 231 233 234 235 236 235 234 234 234
221 220 218 218 222 224 223 224 225 225 223 222 219 216 214 218 224 228 228 227 226 225 225 226 227 228 229 229 229 231 233 233 233 233 232 231 230 231 231 233 235 234 231 232 234 233 230 226 224 227 229 228 227 229 234 237 237 237 238 237 236 236 236
221 220 219 219 222 224 224 224 226 227 226 225 224 221 217 215 218 225 229 229 228 226 225 225 227 228 230 230 230 232 233 234 234 234 234 233 233 233 232 233 235 235 234 235 236 236 236 233 230 228 228 230 231 233 239 242 240 239 240 240 239 238 238
224 221 221 221 223 224 225 225 227 229 229 228 227 225 222 217 216 219 226 230 230 229 227 225 225 227 229 230 230 231 233 235 235 235 235 235 235 235 234 234 235 235 235 235 235 238 240 238 235 233 231 232 235 237 241 244 245 245 245 245 244 242 241
227 224 223 223 224 225 226 226 227 230 231 231 230 228 224 220 217 216 220 227 230 231 229 227 226 228 229 229 229 229 231 233 235 235 235 236 237 236 236 235 234 235 236 236 236 240 242 240 238 238 235 234 237 240 242 243 245 248 249 249 249 248 247
229 227 225 225 225 225 226 227 227 228 230 231 231 230 227 222 218 216 218 223 228 231 230 229 229 230 229 228 229 229 229 231 234 234 234 236 237 237 237 236 236 235 236 237 238 241 243 242 242 241 237 235 236 238 241 242 242 244 247 247 248 248 248
229 229 228 227 227 226 227 228 227 227 228 229 229 230 230 226 222 220 219 220 224 229 231 230 230 232 231 229 229 230 230 231 233 234 233 234 236 238 238 238 237 236 235 237 239 242 243 242 244 244 241 237 236 236 239 242 243 244 245 245 245 246 245
228 228 229 229 230 228 227 227 228 228 227 228 228 229 230 229 226 223 222 221 221 225 230 232 232 233 233 231 230 230 231 232 233 235 235 234 235 238 239 239 238 237 236 236 238 240 241 240 242 245 243 238 238 238 238 241 244 245 247 246 246 247 246
228 227 228 229 230 230 227 226 227 228 228 228 228 228 229 230 228 226 224 223 221 221 226 231 233 234 234 233 232 232 232 232 234 235 237 236 236 237 239 240 239 238 236 235 235 238 238 236 238 242 242 238 239 240 240 242 243 243 244 246 248 248 247
228 226 226 227 229 230 228 227 226 227 228 228 228 228 228 229 230 228 226 225 223 220 222 226 231 234 235 234 234 234 234 234 235 236 237 238 238 238 239 240 240 239 237 235 234 236 237 235 236 240 242 241 241 242 242 244 244 242 241 243 245 247 247
230 227 225 226 228 230 230 229 227 227 227 228 228 228 228 229 230 230 229 227 225 222 221 222 227 232 235 236 235 235 235 236 237 238 238 238 239 239 240 240 241 241 240 238 238 238 238 238 239 242 244 245 245 245 245 246 246 245 243 243 245 246 247
231 230 227 226 228 230 231 231 230 229 229 229 228 228 227 228 229 230 230 229 227 224 222 221 223 227 232 235 236 236 236 236 238 239 240 239 239 239 240 241 242 242 241 241 241 241 241 242 244 246 247 247 248 248 248 249 248 248 247 245 246 247 248
232 232 230 228 229 229 230 231 232 231 231 230 230 229 228 228 228 229 229 229 228 226 224 222 222 224 228 232 235 237 238 237 238 239 240 240 240 240 239 241 242 244 243 243 243 244 244 246 248 249 250 250 250 250 251 251 251 251 251 250 249 250 250
233 233 232 231 229 228 229 230 231 232 232 232 231 231 230 229 229 230 229 229 228 227 225 224 224 224 225 229 232 236 238 239 238 238 239 239 240 241 241 241 242 243 245 245 245 245 246 248 249 250 251 252 252 252 252 253 253 253 253 253 252 252 253
235 234 234 234 232 229 227 228 230 232 232 232 232 232 232 231 231 231 231 230 229 228 227 226 226 226 226 227 230 233 235 237 239 239 239 238 238 239 241 242 242 243 245 246 247 247 248 249 250 251 251 252 253 253 253 253 253 254 254 254 254 253 253
238 236 236 236 235 231 228 227 229 231 232 233 232 232 232 232 232 232 232 232 230 229 229 228 228 229 229 228 228 230 232 235 237 239 239 239 238 237 239 240 242 243 244 246 248 249 250 250 251 252 252 252 253 253 254 254 254 254 254 255 255 254 254
242 239 238 237 236 235 232 229 228 230 232 233 233 233 232 233 233 233 234 233 232 231 231 231 230 230 231 231 230 229 230 232 234 237 239 240 239 237 237 238 240 241 242 244 246 248 250 251 252 253 253 253 253 253 254 255 255 256 256 255 255 255 255
244 242 240 238 237 236 236 234 232 231 232 233 234 234 234 234 233 234 234 235 235 234 233 232 231 231 231 233 233 231 230 230 232 234 237 239 240 239 238 238 239 241 241 242 244 246 248 249 251 253 254 254 255 254 253 254 254 255 256 256 256 256 256
246 243 241 239 237 236 237 238 236 234 234 234 234 234 234 234 235 234 235 236 237 236 235 234 233 232 232 233 234 234 232 231 231 232 234 236 239 240 240 239 239 240 242 242 243 244 245 247 249 250 252 253 254 255 255 254 254 254 254 255 255 256 257
Height
10967 10969 10973 10975 10977 10979 10981 10983 10986 10988 10989 10990 10991 10993 10994 10995 10996 10998 10998 10999 10999 10998 10998 10997 10996 10995 10995 10994 10994 10993 10992 10991 10990 10989 10988 10988 10987 10987 10987 10988 10989 10991 10992 10994 10996 10999 11001 11002 11004 11005 11006 11007 11008 11009 11009 11010 11010 11010 11010 11010 11010 11010 11009
10965 10966 10969 10971 10974 10976 10977 10980 10982 10984 10987 10988 10989 10990 10992 10994 10995 10996 10997 10998 10999 10999 10999 10998 10997 10996 10996 10996 10996 10995 10995 10994 10993 10992 10991 10991 10990 10990 10990 10991 10992 10994 10995 10997 10999 11001 11002 11004 11005 11006 11008 11008 11009 11010 11011 11011 11011 11012 11012 11012 11012 11011 11011
10961 10960 10961 10965 10969 10971 10974 10977 10979 10981 10984 10985 10987 10988 10991 10992 10993 10995 10996 10997 10998 10999 10999 10999 10998 10997 10996 10996 10996 10997 10996 10996 10995 10995 10994 10994 10993 10993 10993 10994 10995 10996 10998 11000 11001 11003 11004 11006 11007 11008 11009 11010 11010 11011 11012 11012 11012 11013 11013 11013 11013 11013 11013
10954 10953 10955 10960 10964 10968 10971 10973 10975 10978 10980 10983 10984 10986 10989 10991 10992 10993 10995 10997 10998 10998 10999 10999 10998 10998 10997 10997 10997 10998 10998 10997 10997 10997 10996 10996 10996 10996 10996 10997 10998 10999 11000 11001 11003 11004 11006 11007 11008 11009 11010 11011 11012 11012 11012 11013 11013 11014 11014 11014 11014 11014 11014
10952 10953 10954 10956 10960 10964 10966 10969 10971 10974 10977 10980 10981 10983 10986 10988 10991 10993 10995 10997 10997 10997 10998 10998 10999 10998 10998 10997 10998 10998 10998 10998 10998 10998 10998 10998 10998 10998 10999 10999 11000 11001 11002 11003 11004 11005 11007 11008 11009 11010 11011 11011 11012 11013 11013 11014 11014 11014 11015 11015 11015 11015 11015
10950 10950 10951 10954 10957 10959 10961 10964 10967 10970 10973 10976 10978 10980 10983 10986 10989 10992 10994 10996 10996 10996 10997 10998 10998 10998 10998 10998 10998 10998 10999 10999 10999 10999 10999 11000 11000 11000 11001 11001 11001 11002 11003 11004 11005 11006 11007 11008 11009 11010 11011 11012 11012 11013 11014 11014 11015 11015 11015 11015 11016 11016 11016
10947 10947 10948 10950 10953 10955 10957 10960 10964 10967 10969 10971 10974 10977 10980 10984 10987 10989 10991 10993 10994 10994 10996 10997 10997 10997 10997 10997 10998 10998 10999 11000 11000 11000 11000 11000 11001 11001 11002 11002 11003 11003 11004 11005 11005 11006 11007 11008 11009 11010 11011 11011 11012 11013 11013 11014 11014 11015 11015 11016 11016 11016 11016
10943 10945 10944 10944 10947 10952 10956 10957 10959 10963 10965 10967 10971 10973 10976 10980 10984 10986 10988 10990 10990 10992 10994 10995 10996 10996 10997 10997 10997 10997 10998 10999 11000 11001 11001 11001 11001 11002 11002 11003 11003 11004 11005 11005 11006 11006 11007 11008 11009 11009 11010 11011 11012 11013 11013 11014 11014 11015 11015 11015 11016 11016 11016
10934 10936 10937 10937 10940 10946 10951 10952 10954 10957 10960 10963 10966 10968 10973 10977 10980 10982 10984 10986 10987 10990 10992 10993 10993 10994 10995 10995 10995 10996 10997 10998 11000 11001 11001 11002 11002 11002 11002 11003 11003 11004 11004 11005 11006 11006 11007 11008 11009 11009 11010 11011 11011 11012 11013 11013 11014 11014 11015 11015 11015 11016 11016
10923 10926 10929 10930 10931 10935 10940 10943 10946 10951 10954 10957 10960 10964 10969 10974 10976 10979 10981 10982 10983 10985 10986 10985 10986 10987 10990 10991 10992 10993 10995 10996 10999 11000 11001 11002 11002 11002 11002 11002 11002 11003 11003 11004 11005 11006 11006 11007 11008 11009 11010 11010 11011 11012 11012 11013 11014 11014 11014 11015 11015 11015 11015
10914 10919 10924 10924 10923 10927 10932 10935 10939 10943 10947 10951 10955 10959 10965 10970 10973 10975 10977 10976 10976 10979 10979 10979 10981 10982 10984 10988 10990 10991 10992 10994 10996 11000 11002 11002 11003 11002 11002 11001 11001 11002 11002 11003 11003 11004 11005 11006 11007 11008 11009 11010 11010 11011 11012 11012 11013 11013 11013 11014 11014 11014 11015
10908 10915 10920 10919 10919 10925 10930 10933 10936 10938 10943 10948 10952 10955 10960 10965 10968 10971 10973 10972 10971 10973 10975 10977 10978 10978 10980 10984 10987 10989 10989 10988 10990 10995 10998 10999 10999 10999 10999 10999 11000 11001 11001 11001 11001 11002 11003 11004 11005 11006 11007 11008 11009 11010 11010 11011 11011 11012 11012 11013 11013 11013 11014
10903 10911 10916 10915 10917 10922 10927 10931 10933 10935 10940 10946 10950 10953 10956 10961 10964 10966 10969 10968 10966 10967 10971 10973 10974 10975 10977 10980 10983 10985 10987 10986 10985 10989 10993 10994 10994 10994 10994 10994 10997 10999 10999 10999 11000 11000 11001 11002 11003 11004 11005 11006 11007 11008 11008 11009 11010 11010 11010 11011 11011 11012 11012
10895 10904 10908 10908 10910 10915 10919 10923 10927 10930 10935 10940 10944 10948 10951 10954 10957 10960 10962 10962 10961 10963 10967 10969 10971 10972 10974 10976 10979 10981 10984 10984 10984 10986 10989 10991 10991 10991 10991 10990 10992 10994 10995 10997 10997 10998 10999 10999 11000 11002 11003 11004 11005 11005 11007 11007 11008 11008 11009 11009 11009 11010 11010
10889 10897 10901 10900 10903 10908 10911 10916 10921 10925 10929 10933 10936 10940 10944 10947 10949 10953 10956 10957 10957 10960 10963 10965 10968 10969 10971 10973 10975 10978 10979 10980 10981 10983 10985 10987 10988 10988 10987 10987 10986 10988 10991 10994 10996 10996 10996 10997 10998 10999 11000 11001 11002 11003 11004 11005 11006 11006 11006 11006 11007 11007 11008
10883 10891 10896 10897 10899 10903 10906 10910 10915 10919 10923 10927 10929 10932 10936 10940 10943 10947 10950 10952 10953 10956 10959 10962 10964 10966 10968 10970 10972 10974 10975 10976 10977 10979 10981 10983 10984 10984 10984 10984 10984 10983 10984 10987 10991 10993 10993 10993 10994 10995 10996 10997 10999 11000 11001 11002 11003 11004 11004 11005 11005 11006 11007
10876 10884 10889 10889 10891 10895 10900 10905 10909 10912 10916 10920 10923 10925 10928 10932 10936 10940 10943 10947 10949 10952 10955 10958 10960 10962 10965 10967 10968 10970 10971 10972 10974 10975 10977 10978 10979 10980 10982 10982 10982 10981 10979 10979 10982 10985 10988 10989 10990 10991 10992 10993 10995 10997 10997 10999 11000 11001 11002 11003 11004 11005 11006
10870 10876 10880 10880 10882 10888 10894 10897 10900 10903 10907 10911 10915 10918 10921 10924 10929 10933 10936 10940 10944 10948 10951 10953 10955 10957 10960 10961 10963 10965 10967 10968 10970 10971 10972 10973 10974 10976 10978 10978 10978 10979 10978 10977 10978 10979 10981 10984 10986 10987 10988 10989 10991 10993 10994 10996 10998 10998 10999 11000 11001 11003 11004
10862 10868 10872 10875 10879 10883 10886 10887 10890 10893 10898 10903 10907 10910 10913 10917 10921 10925 10930 10934 10938 10942 10945 10948 10950 10952 10954 10956 10958 10960 10961 10963 10965 10967 10969 10970 10971 10972 10973 10973 10974 10975 10976 10976 10977 10977 10978 10980 10982 10984 10985 10986 10988 10990 10991 10993 10995 10995 10996 10997 10998 10999 11000
10853 10859 10865 10870 10872 10873 10874 10875 10878 10883 10888 10894 10898 10902 10906 10910 10914 10919 10923 10927 10931 10935 10938 10942 10944 10946 10948 10951 10953 10954 10956 10959 10961 10964 10965 10966 10966 10967 10967 10969 10970 10972 10973 10974 10975 10975 10976 10977 10978 10980 10982 10983 10985 10987 10988 10990 10992 10993 10993 10994 10994 10996 10996
10845 10850 10857 10862 10861 10860 10862 10864 10868 10873 10878 10883 10889 10894 10899 10903 10907 10912 10915 10919 10923 10927 10931 10934 10937 10940 10942 10944 10947 10949 10951 10954 10956 10958 10959 10960 10961 10962 10963 10965 10966 10968 10970 10971 10972 10972 10973 10973 10973 10975 10978 10980 10982 10984 10985 10986 10987 10988 10988 10989 10990 10991 10992
10836 10841 10847 10851 10849 10849 10853 10857 10861 10865 10869 10873 10878 10884 10890 10896 10900 10904 10908 10911 10914 10918 10923 10927 10930 10933 10935 10938 10941 10943 10945 10947 10949 10951 10953 10955 10956 10957 10958 10960 10962 10964 10966 10968 10968 10969 10971 10971 10972 10974 10976 10978 10980 10982 10982 10981 10981 10983 10983 10984 10986 10987 10988
10826 10831 10836 10840 10840 10843 10848 10852 10854 10856 10858 10863 10869 10875 10882 10888 10892 10897 10901 10903 10906 10910 10914 10918 10923 10926 10928 10930 10933 10935 10937 10939 10941 10943 10946 10948 10950 10952 10954 10956 10958 10960 10962 10964 10964 10965 10967 10969 10970 10972 10974 10976 10978 10979 10977 10975 10975 10978 10979 10980 10981 10983 10984
10816 10821 10826 10830 10833 10836 10839 10841 10843 10845 10848 10855 10862 10867 10874 10879 10884 10889 10892 10894 10898 10901 10905 10911 10917 10918 10918 10921 10924 10927 10930 10932 10934 10936 10939 10941 10943 10945 10948 10951 10953 10955 10957 10958 10960 10961 10963 10965 10966 10968 10970 10973 10974 10973 10970 10969 10971 10972 10974 10975 10976 10978 10979
10806 10811 10817 10821 10824 10828 10829 10828 10831 10836 10840 10845 10852 10858 10865 10871 10875 10880 10883 10886 10890 10894 10898 10905 10909 10907 10906 10912 10918 10920 10923 10925 10927 10929 10932 10934 10936 10938 10941 10945 10947 10949 10951 10953 10955 10956 10958 10960 10961 10963 10965 10966 10966 10965 10963 10964 10965 10967 10968 10970 10971 10972 10974
10796 10802 10808 10811 10814 10817 10818 10817 10821 10828 10831 10836 10842 10849 10855 10862 10866 10870 10874 10878 10883 10887 10891 10897 10898 10896 10898 10906 10911 10913 10916 10918 10920 10922 10925 10927 10929 10932 10935 10938 10941 10943 10945 10947 10948 10950 10952 10954 10955 10957 10959 10960 10959 10958 10957 10958 10959 10961 10962 10964 10965 10966 10968
10787 10793 10798 10801 10803 10806 10808 10809 10813 10820 10824 10828 10834 10840 10845 10851 10856 10861 10866 10870 10875 10879 10883 10887 10888 10888 10891 10898 10902 10905 10908 10911 10913 10916 10918 10921 10923 10925 10928 10931 10933 10936 10938 10940 10941 10943 10945 10947 10949 10950 10953 10953 10952 10951 10951 10952 10953 10954 10956 10957 10958 10960 10962
10778 10784 10788 10791 10792 10794 10798 10800 10804 10809 10814 10819 10824 10829 10835 10840 10845 10851 10857 10862 10866 10870 10874 10877 10879 10880 10884 10889 10893 10897 10900 10903 10906 10909 10911 10914 10916 10918 10920 10922 10925 10928 10930 10933 10934 10936 10938 10940 10942 10943 10945 10945 10945 10945 10945 10945 10945 10945 10948 10950 10950 10952 10955
10770 10775 10779 10781 10782 10784 10788 10791 10794 10798 10802 10807 10812 10818 10824 10829 10835 10841 10846 10852 10857 10862 10865 10868 10870 10873 10877 10882 10885 10888 10892 10895 10898 10901 10903 10906 10908 10910 10912 10914 10916 10919 10922 10924 10926 10928 10930 10932 10934 10935 10937 10938 10938 10939 10938 10937 10936 10936 10940 10943 10944 10945 10948
10761 10765 10770 10772 10773 10775 10778 10782 10785 10787 10790 10795 10801 10807 10814 10820 10826 10831 10837 10842 10848 10853 10857 10860 10863 10865 10868 10872 10876 10880 10883 10886 10890 10892 10895 10898 10900 10902 10903 10905 10907 10909 10912 10915 10917 10919 10921 10923 10924 10927 10929 10930 10930 10931 10931 10930 10927 10929 10934 10937 10937 10938 10940
10752 10755 10760 10763 10765 10767 10769 10773 10776 10778 10781 10786 10791 10798 10805 10811 10816 10821 10827 10833 10839 10844 10849 10852 10855 10858 10860 10862 10866 10870 10874 10878 10881 10883 10886 10888 10891 10893 10895 10896 10897 10900 10902 10905 10907 10909 10911 10913 10914 10916 10919 10921 10922 10922 10923 10922 10922 10922 10925 10928 10929 10930 10931
10745 10747 10750 10754 10756 10758 10761 10763 10766 10769 10773 10778 10784 10790 10796 10802 10807 10811 10818 10824 10829 10835 10839 10843 10846 10849 10851 10853 10856 10860 10865 10869 10872 10875 10877 10879 10881 10884 10886 10888 10889 10890 10892 10895 10898 10899 10901 10902 10904 10906 10908 10911 10913 10913 10913 10914 10915 10915 10917 10919 10920 10921 10922
10739 10740 10741 10744 10748 10750 10753 10755 10757 10760 10764 10770 10776 10781 10788 10793 10798 10802 10808 10814 10820 10825 10829 10833 10836 10840 10843 10846 10848 10851 10855 10859 10863 10866 10869 10871 10873 10875 10877 10879 10881 10881 10882 10884 10886 10889 10890 10892 10893 10895 10898 10900 10902 10903 10904 10905 10906 10908 10908 10910 10911 10913 10914
10732 10733 10734 10735 10739 10742 10745 10747 10749 10751 10755 10760 10766 10772 10778 10784 10789 10793 10798 10804 10810 10815 10819 10823 10826 10829 10834 10837 10840 10842 10845 10849 10852 10856 10859 10861 10864 10866 10867 10869 10871 10873 10873 10873 10875 10877 10879 10881 10882 10884 10887 10889 10891 10892 10894 10895 10897 10899 10900 10901 10902 10904 10905
10725 10727 10728 10729 10731 10734 10737 10740 10742 10744 10747 10751 10756 10762 10767 10773 10778 10783 10788 10794 10800 10805 10809 10813 10816 10818 10822 10827 10830 10833 10836 10838 10841 10844 10848 10851 10853 10856 10858 10859 10861 10863 10864 10865 10865 10866 10868 10870 10871 10873 10875 10878 10880 10881 10882 10884 10886 10888 10890 10891 10893 10894 10895
10716 10718 10720 10722 10723 10725 10729 10732 10735 10737 10739 10743 10748 10753 10758 10763 10768 10773 10778 10783 10788 10793 10797 10801 10805 10808 10811 10815 10819 10823 10826 10829 10831 10833 10836 10840 10843 10845 10848 10850 10851 10853 10854 10855 10857 10857 10858 10859 10860 10862 10863 10866 10868 10870 10872 10873 10874 10876 10878 10880 10882 10883 10885
10707 10709 10711 10714 10716 10718 10720 10723 10727 10730 10732 10735 10739 10744 10749 10754 10759 10764 10768 10771 10776 10781 10785 10790 10794 10797 10800 10803 10807 10811 10815 10819 10821 10823 10825 10828 10831 10834 10837 10839 10841 10843 10844 10845 10846 10847 10848 10850 10851 10852 10853 10854 10855 10858 10860 10862 10864 10865 10867 10869 10870 10872 10874
10698 10700 10702 10704 10707 10709 10712 10714 10717 10721 10724 10727 10730 10735 10740 10745 10750 10754 10757 10761 10764 10769 10773 10777 10782 10785 10789 10792 10795 10799 10803 10807 10810 10813 10815 10817 10819 10822 10825 10828 10830 10832 10833 10833 10834 10836 10838 10840 10841 10842 10843 10844 10845 10846 10847 10849 10852 10854 10856 10858 10860 10861 10862